| time (UTC) | temp F | wind direction | speed MPH | gust MPH | rain 1hr in | rain 24hr in | rain mn in | humidity % | barometer mb |
| 20260510152522 | 75 | 354 | 1.0 | 4.0 | 0.00 | 0.00 | 0.00 | 49 | 1019.6 |
| 20260510152018 | 76 | 14 | 1.0 | 3.0 | 0.00 | 0.00 | 0.00 | 58 | 1019.7 |
| 20260510151515 | 75 | 180 | 0.0 | 3.0 | 0.00 | 0.00 | 0.00 | 52 | 1019.4 |
| 20260510151013 | 75 | 270 | 1.0 | 4.0 | 0.00 | 0.00 | 0.00 | 53 | 1019.7 |
| 20260510150507 | 74 | 348 | 0.0 | 3.0 | 0.00 | 0.00 | 0.00 | 55 | 1019.8 |
| 20260510150004 | 73 | 7 | 1.0 | 5.0 | 0.00 | 0.00 | 0.00 | 52 | 1019.9 |
| 20260510145500 | 73 | 180 | 1.0 | 3.0 | 0.00 | 0.00 | 0.00 | 54 | 1019.8 |
| 20260510144956 | 72 | 344 | 2.0 | 2.0 | 0.00 | 0.00 | 0.00 | 62 | 1019.7 |
| 20260510144454 | 72 | 354 | 3.0 | 4.0 | 0.00 | 0.00 | 0.00 | 60 | 1019.9 |
| 20260510143949 | 72 | 355 | 0.0 | 2.0 | 0.00 | 0.00 | 0.00 | 64 | 1020.0 |
| 20260510143445 | 72 | 254 | 2.0 | 4.0 | 0.00 | 0.00 | 0.00 | 67 | 1019.8 |
| 20260510142942 | 72 | 307 | 3.0 | 5.0 | 0.00 | 0.00 | 0.00 | 66 | 1019.7 |
| 20260510142439 | 72 | 331 | 0.0 | 3.0 | 0.00 | 0.00 | 0.00 | 65 | 1019.8 |
| 20260510141935 | 71 | 6 | 1.0 | 3.0 | 0.00 | 0.00 | 0.00 | 66 | 1019.7 |
| 20260510141432 | 71 | 339 | 0.0 | 5.0 | 0.00 | 0.00 | 0.00 | 68 | 1020.0 |
| 20260510140929 | 70 | 81 | 0.0 | 5.0 | 0.00 | 0.00 | 0.00 | 67 | 1019.7 |
| 20260510140420 | 70 | 2 | 3.0 | 4.0 | 0.00 | 0.00 | 0.00 | 71 | 1019.9 |
| 20260510135919 | 69 | 338 | 0.0 | 3.0 | 0.00 | 0.00 | 0.00 | 72 | 1019.6 |
| 20260510135415 | 69 | 6 | 0.0 | 3.0 | 0.00 | 0.00 | 0.00 | 73 | 1019.7 |
| 20260510134913 | 69 | 0 | 1.0 | 4.0 | 0.00 | 0.00 | 0.00 | 71 | 1019.7 |
| 20260510134409 | 69 | 253 | 2.0 | 3.0 | 0.00 | 0.00 | 0.00 | 74 | 1019.7 |
| 20260510133905 | 68 | 321 | 3.0 | 4.0 | 0.00 | 0.00 | 0.00 | 76 | 1019.7 |
| 20260510133402 | 68 | 319 | 0.0 | 4.0 | 0.00 | 0.00 | 0.00 | 78 | 1019.6 |
| 20260510132857 | 67 | 306 | 0.0 | 2.0 | 0.00 | 0.00 | 0.00 | 83 | 1019.6 |
| 20260510132356 | 67 | 337 | 1.0 | 2.0 | 0.00 | 0.00 | 0.00 | 83 | 1019.5 |
| 20260510131852 | 66 | 331 | 0.0 | 2.0 | 0.00 | 0.00 | 0.00 | 83 | 1019.5 |
| 20260510131350 | 66 | 340 | 0.0 | 2.0 | 0.00 | 0.00 | 0.00 | 83 | 1019.6 |
| 20260510130846 | 65 | 352 | 0.0 | 3.0 | 0.00 | 0.00 | 0.00 | 84 | 1019.6 |
| 20260510130343 | 64 | 345 | 2.0 | 4.0 | 0.00 | 0.00 | 0.00 | 89 | 1019.5 |
| 20260510125840 | 62 | 257 | 1.0 | 2.0 | 0.00 | 0.00 | 0.00 | 95 | 1019.5 |
| 20260510125336 | 62 | 0 | 0.0 | 2.0 | 0.00 | 0.00 | 0.00 | 97 | 1019.8 |
| 20260510124833 | 61 | 11 | 2.0 | 3.0 | 0.00 | 0.00 | 0.00 | 99 | 1019.5 |
| 20260510124330 | 61 | 349 | 2.0 | 3.0 | 0.00 | 0.00 | 0.00 | 99 | 1019.5 |
| 20260510123826 | 60 | 5 | 0.0 | 2.0 | 0.00 | 0.00 | 0.00 | 99 | 1019.2 |
| 20260510123321 | 60 | 329 | 3.0 | 3.0 | 0.00 | 0.00 | 0.00 | 99 | 1019.3 |
| 20260510122818 | 60 | 0 | 0.0 | 2.0 | 0.00 | 0.00 | 0.00 | 99 | 1019.4 |
| 20260510122314 | 60 | 334 | 0.0 | 2.0 | 0.00 | 0.00 | 0.00 | 99 | 1019.2 |
| 20260510121810 | 59 | 286 | 1.0 | 1.0 | 0.00 | 0.00 | 0.00 | 99 | 1019.1 |
| 20260510121308 | 59 | 354 | 0.0 | 2.0 | 0.00 | 0.00 | 0.00 | 99 | 1019.2 |
| 20260510120805 | 59 | 356 | 2.0 | 3.0 | 0.00 | 0.00 | 0.00 | 99 | 1019.0 |
| 20260510120301 | 57 | 346 | 0.0 | 1.0 | 0.00 | 0.00 | 0.00 | 99 | 1018.9 |
| 20260510115757 | 57 | 20 | 0.0 | 0.0 | 0.00 | 0.00 | 0.00 | 99 | 1018.8 |
| 20260510115256 | 56 | 20 | 0.0 | 0.0 | 0.00 | 0.00 | 0.00 | 99 | 1018.7 |
| 20260510114756 | 56 | 20 | 0.0 | 0.0 | 0.00 | 0.00 | 0.00 | 99 | 1018.8 |
| 20260510114253 | 56 | 20 | 0.0 | 0.0 | 0.00 | 0.00 | 0.00 | 99 | 1018.7 |
| 20260510113748 | 55 | 0 | 0.0 | 0.0 | 0.00 | 0.00 | 0.00 | 99 | 1018.6 |
| 20260510113246 | 55 | 0 | 0.0 | 0.0 | 0.00 | 0.00 | 0.00 | 99 | 1018.5 |
| 20260510112741 | 55 | 29 | 0.0 | 0.0 | 0.00 | 0.00 | 0.00 | 99 | 1018.3 |
| 20260510112238 | 55 | 63 | 0.0 | 0.0 | 0.00 | 0.00 | 0.00 | 99 | 1018.2 |
| 20260510111734 | 55 | 63 | 0.0 | 0.0 | 0.00 | 0.00 | 0.00 | 99 | 1018.6 |
| 20260510111232 | 55 | 63 | 0.0 | 0.0 | 0.00 | 0.00 | 0.00 | 99 | 1018.3 |
| 20260510110731 | 54 | 20 | 0.0 | 0.0 | 0.00 | 0.00 | 0.00 | 99 | 1018.3 |
| 20260510110229 | 54 | 20 | 0.0 | 0.0 | 0.00 | 0.00 | 0.00 | 99 | 1018.1 |
| 20260510105728 | 54 | 8 | 0.0 | 1.0 | 0.00 | 0.00 | 0.00 | 99 | 1018.1 |
| 20260510105224 | 54 | 74 | 0.0 | 0.0 | 0.00 | 0.00 | 0.00 | 99 | 1018.1 |
| 20260510104720 | 54 | 74 | 0.0 | 0.0 | 0.00 | 0.00 | 0.00 | 99 | 1017.8 |
| 20260510104218 | 54 | 74 | 0.0 | 1.0 | 0.00 | 0.00 | 0.00 | 99 | 1017.8 |
| 20260510103714 | 54 | 0 | 0.0 | 0.0 | 0.00 | 0.00 | 0.00 | 99 | 1017.7 |
| 20260510103211 | 54 | 54 | 0.0 | 0.0 | 0.00 | 0.00 | 0.00 | 99 | 1017.8 |
| 20260510102711 | 54 | 54 | 0.0 | 0.0 | 0.00 | 0.00 | 0.00 | 99 | 1017.6 |
| 20260510102207 | 54 | 54 | 0.0 | 0.0 | 0.00 | 0.00 | 0.00 | 99 | 1017.6 |
| 20260510101705 | 54 | 60 | 1.0 | 1.0 | 0.00 | 0.00 | 0.00 | 99 | 1017.6 |
| 20260510101203 | 54 | 0 | 0.0 | 0.0 | 0.00 | 0.00 | 0.00 | 99 | 1017.4 |
| 20260510100658 | 54 | 23 | 0.0 | 1.0 | 0.00 | 0.00 | 0.00 | 99 | 1017.3 |
| 20260510100156 | 55 | 353 | 0.0 | 1.0 | 0.00 | 0.00 | 0.00 | 99 | 1017.3 |
| 20260510095652 | 55 | 90 | 0.0 | 1.0 | 0.00 | 0.00 | 0.00 | 99 | 1017.1 |
| 20260510095147 | 55 | 353 | 0.0 | 0.0 | 0.00 | 0.00 | 0.00 | 99 | 1017.5 |
| 20260510094646 | 55 | 7 | 0.0 | 1.0 | 0.00 | 0.00 | 0.00 | 99 | 1017.2 |
| 20260510094142 | 54 | 15 | 0.0 | 1.0 | 0.00 | 0.00 | 0.00 | 99 | 1017.0 |
| 20260510093638 | 55 | 26 | 0.0 | 0.0 | 0.00 | 0.00 | 0.00 | 99 | 1017.0 |
| 20260510093135 | 55 | 74 | 0.0 | 0.0 | 0.00 | 0.00 | 0.00 | 99 | 1016.9 |
| 20260510092632 | 55 | 74 | 0.0 | 1.0 | 0.00 | 0.00 | 0.00 | 99 | 1016.9 |
| 20260510092127 | 55 | 20 | 0.0 | 0.0 | 0.00 | 0.00 | 0.00 | 99 | 1016.9 |
| 20260510091623 | 55 | 23 | 0.0 | 0.0 | 0.00 | 0.00 | 0.00 | 99 | 1016.8 |
| 20260510091120 | 56 | 23 | 0.0 | 1.0 | 0.00 | 0.00 | 0.00 | 99 | 1016.6 |
| 20260510090617 | 56 | 29 | 0.0 | 2.0 | 0.00 | 0.00 | 0.00 | 99 | 1016.4 |
| 20260510090113 | 56 | 54 | 0.0 | 1.0 | 0.00 | 0.00 | 0.00 | 99 | 1016.7 |
| 20260510085608 | 55 | 60 | 0.0 | 0.0 | 0.00 | 0.00 | 0.00 | 99 | 1016.8 |
| 20260510085104 | 56 | 60 | 0.0 | 0.0 | 0.00 | 0.00 | 0.00 | 99 | 1016.5 |
| 20260510084600 | 56 | 60 | 0.0 | 0.0 | 0.00 | 0.00 | 0.00 | 99 | 1016.4 |
| 20260510084057 | 56 | 60 | 0.0 | 0.0 | 0.00 | 0.00 | 0.00 | 99 | 1016.5 |
| 20260510083553 | 56 | 90 | 0.0 | 0.0 | 0.00 | 0.00 | 0.00 | 99 | 1016.2 |
| 20260510083050 | 56 | 90 | 0.0 | 0.0 | 0.00 | 0.00 | 0.00 | 99 | 1016.4 |
| 20260510082547 | 57 | 60 | 0.0 | 0.0 | 0.00 | 0.00 | 0.00 | 99 | 1016.3 |
| 20260510082042 | 57 | 81 | 0.0 | 0.0 | 0.00 | 0.00 | 0.00 | 99 | 1016.1 |
| 20260510081537 | 57 | 74 | 0.0 | 0.0 | 0.00 | 0.00 | 0.00 | 99 | 1016.3 |
| 20260510081033 | 57 | 7 | 0.0 | 0.0 | 0.00 | 0.00 | 0.00 | 99 | 1016.2 |
| 20260510080532 | 57 | 29 | 1.0 | 1.0 | 0.00 | 0.00 | 0.00 | 99 | 1016.0 |
| 20260510080030 | 57 | 15 | 0.0 | 0.0 | 0.00 | 0.00 | 0.00 | 99 | 1016.1 |
| 20260510075527 | 57 | 0 | 0.0 | 0.0 | 0.00 | 0.00 | 0.00 | 99 | 1015.9 |
| 20260510075024 | 57 | 29 | 0.0 | 1.0 | 0.00 | 0.00 | 0.00 | 99 | 1016.2 |
| 20260510074522 | 57 | 0 | 0.0 | 0.0 | 0.00 | 0.00 | 0.00 | 99 | 1016.2 |
| 20260510074016 | 57 | 0 | 0.0 | 0.0 | 0.00 | 0.00 | 0.00 | 99 | 1016.1 |
| 20260510073513 | 57 | 0 | 0.0 | 0.0 | 0.00 | 0.00 | 0.00 | 99 | 1016.2 |
| 20260510073010 | 57 | 352 | 0.0 | 0.0 | 0.00 | 0.00 | 0.00 | 99 | 1015.9 |
| 20260510072506 | 57 | 352 | 0.0 | 0.0 | 0.00 | 0.00 | 0.00 | 99 | 1015.8 |
| 20260510072002 | 57 | 352 | 0.0 | 0.0 | 0.00 | 0.00 | 0.00 | 99 | 1015.9 |
| 20260510071458 | 57 | 0 | 0.0 | 0.0 | 0.00 | 0.00 | 0.00 | 99 | 1015.8 |
| 20260510070956 | 57 | 334 | 0.0 | 0.0 | 0.00 | 0.00 | 0.00 | 99 | 1015.9 |
| 20260510070453 | 58 | 0 | 0.0 | 0.0 | 0.00 | 0.00 | 0.00 | 99 | 1015.9 |
| 20260510065949 | 58 | 0 | 0.0 | 0.0 | 0.00 | 0.00 | 0.00 | 99 | 1015.8 |
| 20260510065446 | 58 | 14 | 0.0 | 1.0 | 0.00 | 0.00 | 0.00 | 99 | 1015.9 |
| 20260510064942 | 58 | 352 | 0.0 | 0.0 | 0.00 | 0.00 | 0.00 | 99 | 1015.9 |
| 20260510064440 | 58 | 0 | 0.0 | 0.0 | 0.00 | 0.00 | 0.00 | 99 | 1015.8 |
| 20260510063936 | 58 | 0 | 0.0 | 0.0 | 0.00 | 0.00 | 0.00 | 99 | 1015.9 |
| 20260510063432 | 58 | 0 | 0.0 | 0.0 | 0.00 | 0.00 | 0.00 | 99 | 1016.1 |
| 20260510062930 | 58 | 0 | 0.0 | 1.0 | 0.00 | 0.00 | 0.00 | 99 | 1015.8 |
| 20260510062425 | 59 | 7 | 0.0 | 0.0 | 0.00 | 0.00 | 0.00 | 99 | 1015.9 |
| 20260510061921 | 58 | 7 | 0.0 | 0.0 | 0.00 | 0.00 | 0.00 | 99 | 1015.9 |
| 20260510061418 | 58 | 352 | 0.0 | 0.0 | 0.00 | 0.00 | 0.00 | 99 | 1015.8 |
| 20260510060914 | 58 | 8 | 0.0 | 0.0 | 0.00 | 0.00 | 0.00 | 99 | 1015.9 |
| 20260510060410 | 59 | 0 | 0.0 | 0.0 | 0.00 | 0.00 | 0.00 | 99 | 1016.0 |
| 20260510055907 | 59 | 0 | 0.0 | 0.0 | 0.00 | 0.00 | 0.00 | 99 | 1015.8 |
| 20260510055402 | 58 | 0 | 0.0 | 0.0 | 0.00 | 0.00 | 0.00 | 99 | 1015.9 |
| 20260510054900 | 58 | 0 | 0.0 | 0.0 | 0.00 | 0.00 | 0.00 | 99 | 1015.8 |
| 20260510054356 | 59 | 0 | 0.0 | 0.0 | 0.00 | 0.00 | 0.00 | 99 | 1015.9 |
| 20260510053851 | 59 | 0 | 0.0 | 0.0 | 0.00 | 0.00 | 0.00 | 99 | 1015.9 |
| 20260510053347 | 59 | 0 | 0.0 | 0.0 | 0.00 | 0.00 | 0.00 | 99 | 1015.9 |
| 20260510052843 | 59 | 0 | 0.0 | 0.0 | 0.00 | 0.00 | 0.00 | 99 | 1016.1 |
| 20260510052339 | 59 | 0 | 0.0 | 0.0 | 0.00 | 0.00 | 0.00 | 99 | 1015.9 |
| 20260510051836 | 59 | 0 | 0.0 | 0.0 | 0.00 | 0.00 | 0.00 | 99 | 1015.8 |
| 20260510051332 | 59 | 0 | 0.0 | 0.0 | 0.00 | 0.00 | 0.00 | 99 | 1016.1 |
| 20260510050830 | 60 | 0 | 0.0 | 0.0 | 0.00 | 0.00 | 0.00 | 99 | 1015.8 |
| 20260510050326 | 59 | 0 | 0.0 | 0.0 | 0.00 | 0.00 | 0.00 | 99 | 1015.9 |
| 20260510045823 | 60 | 0 | 0.0 | 0.0 | 0.00 | 0.00 | 0.00 | 99 | 1016.0 |
| 20260510045320 | 60 | 0 | 0.0 | 0.0 | 0.00 | 0.00 | 0.00 | 99 | 1016.1 |
| 20260510044817 | 60 | 0 | 0.0 | 0.0 | 0.00 | 0.00 | 0.00 | 99 | 1015.8 |
| 20260510044314 | 59 | 0 | 0.0 | 0.0 | 0.00 | 0.00 | 0.00 | 99 | 1016.2 |
| 20260510043810 | 60 | 0 | 0.0 | 0.0 | 0.00 | 0.00 | 0.00 | 99 | 1016.0 |
| 20260510043306 | 59 | 14 | 0.0 | 0.0 | 0.00 | 0.00 | 0.00 | 99 | 1016.0 |
| 20260510042804 | 60 | 14 | 0.0 | 0.0 | 0.00 | 0.00 | 0.00 | 99 | 1015.9 |
| 20260510042259 | 60 | 14 | 0.0 | 0.0 | 0.00 | 0.00 | 0.00 | 99 | 1015.9 |
| 20260510041756 | 60 | 8 | 0.0 | 0.0 | 0.00 | 0.00 | 0.00 | 99 | 1016.1 |
| 20260510041253 | 60 | 8 | 0.0 | 0.0 | 0.00 | 0.00 | 0.00 | 99 | 1015.9 |
| 20260510040751 | 60 | 0 | 0.0 | 0.0 | 0.00 | 0.00 | 0.00 | 99 | 1016.2 |
| 20260510040242 | 60 | 8 | 0.0 | 0.0 | 0.00 | 0.00 | 0.00 | 99 | 1016.0 |
| 20260510035737 | 60 | 8 | 0.0 | 0.0 | 0.00 | 0.00 | 0.00 | 99 | 1016.0 |
| 20260510035233 | 60 | 8 | 0.0 | 0.0 | 0.00 | 0.00 | 0.00 | 99 | 1016.1 |
| 20260510034729 | 60 | 8 | 0.0 | 0.0 | 0.00 | 0.00 | 0.00 | 99 | 1016.2 |
| 20260510034228 | 60 | 352 | 0.0 | 0.0 | 0.00 | 0.00 | 0.00 | 99 | 1016.1 |
| 20260510033723 | 60 | 14 | 0.0 | 0.0 | 0.00 | 0.00 | 0.00 | 98 | 1016.4 |
| 20260510033221 | 60 | 14 | 0.0 | 0.0 | 0.00 | 0.00 | 0.00 | 99 | 1016.1 |
| 20260510032717 | 60 | 14 | 0.0 | 1.0 | 0.00 | 0.00 | 0.00 | 98 | 1016.1 |
| 20260510032213 | 60 | 0 | 0.0 | 0.0 | 0.00 | 0.00 | 0.00 | 98 | 1016.3 |
| 20260510031708 | 60 | 0 | 0.0 | 0.0 | 0.00 | 0.00 | 0.00 | 98 | 1015.9 |
| 20260510031204 | 60 | 8 | 0.0 | 0.0 | 0.00 | 0.00 | 0.00 | 98 | 1015.9 |
| 20260510030704 | 60 | 8 | 0.0 | 0.0 | 0.00 | 0.00 | 0.00 | 98 | 1016.1 |
| 20260510030202 | 61 | 0 | 0.0 | 1.0 | 0.00 | 0.00 | 0.00 | 98 | 1015.9 |
| 20260510025659 | 61 | 8 | 0.0 | 0.0 | 0.00 | 0.00 | 0.00 | 98 | 1016.0 |
| 20260510025156 | 61 | 0 | 0.0 | 0.0 | 0.00 | 0.00 | 0.00 | 97 | 1015.9 |
| 20260510024653 | 61 | 0 | 0.0 | 0.0 | 0.00 | 0.00 | 0.00 | 97 | 1016.1 |
| 20260510024149 | 61 | 15 | 0.0 | 0.0 | 0.00 | 0.00 | 0.00 | 97 | 1016.2 |
| 20260510023645 | 61 | 15 | 0.0 | 0.0 | 0.00 | 0.00 | 0.00 | 97 | 1016.1 |
| 20260510023142 | 61 | 15 | 0.0 | 0.0 | 0.00 | 0.00 | 0.00 | 97 | 1015.9 |
| 20260510022637 | 61 | 15 | 0.0 | 0.0 | 0.00 | 0.00 | 0.00 | 97 | 1015.9 |
| 20260510022132 | 61 | 15 | 0.0 | 0.0 | 0.00 | 0.00 | 0.00 | 96 | 1015.8 |
| 20260510021628 | 61 | 20 | 0.0 | 1.0 | 0.00 | 0.00 | 0.00 | 96 | 1015.7 |
| 20260510021126 | 62 | 35 | 0.0 | 0.0 | 0.00 | 0.00 | 0.00 | 96 | 1015.5 |
| 20260510020620 | 62 | 15 | 0.0 | 0.0 | 0.00 | 0.00 | 0.00 | 96 | 1015.4 |
| 20260510020115 | 62 | 23 | 0.0 | 0.0 | 0.00 | 0.00 | 0.00 | 95 | 1015.4 |
| 20260510015612 | 62 | 23 | 0.0 | 0.0 | 0.00 | 0.00 | 0.00 | 95 | 1015.7 |
| 20260510015108 | 62 | 23 | 0.0 | 0.0 | 0.00 | 0.00 | 0.00 | 95 | 1015.5 |
| 20260510014604 | 62 | 23 | 0.0 | 0.0 | 0.00 | 0.00 | 0.00 | 95 | 1015.2 |
| 20260510014102 | 62 | 23 | 0.0 | 0.0 | 0.00 | 0.00 | 0.00 | 94 | 1015.2 |
| 20260510013556 | 63 | 23 | 0.0 | 0.0 | 0.00 | 0.00 | 0.00 | 94 | 1015.2 |
| 20260510013052 | 62 | 23 | 0.0 | 0.0 | 0.00 | 0.00 | 0.00 | 93 | 1015.3 |
| 20260510012545 | 63 | 23 | 0.0 | 0.0 | 0.00 | 0.00 | 0.00 | 94 | 1015.1 |
| 20260510012043 | 63 | 23 | 0.0 | 0.0 | 0.00 | 0.00 | 0.00 | 93 | 1015.0 |
| 20260510011542 | 64 | 23 | 0.0 | 0.0 | 0.00 | 0.00 | 0.00 | 93 | 1014.9 |
| 20260510011038 | 63 | 15 | 0.0 | 1.0 | 0.00 | 0.00 | 0.00 | 93 | 1014.7 |
| 20260510010535 | 64 | 8 | 0.0 | 1.0 | 0.00 | 0.00 | 0.00 | 92 | 1014.8 |
| 20260510010032 | 64 | 15 | 0.0 | 0.0 | 0.00 | 0.00 | 0.00 | 92 | 1014.6 |
| 20260510005527 | 64 | 15 | 0.0 | 0.0 | 0.00 | 0.00 | 0.00 | 91 | 1014.7 |
| 20260510005026 | 64 | 15 | 0.0 | 1.0 | 0.00 | 0.00 | 0.00 | 91 | 1014.4 |
| 20260510004523 | 64 | 0 | 1.0 | 1.0 | 0.00 | 0.00 | 0.00 | 90 | 1014.4 |
| 20260510004021 | 65 | 353 | 1.0 | 1.0 | 0.00 | 0.00 | 0.00 | 90 | 1014.2 |
| 20260510003517 | 65 | 0 | 0.0 | 0.0 | 0.00 | 0.00 | 0.00 | 89 | 1014.3 |
| 20260510003013 | 66 | 0 | 0.0 | 0.0 | 0.00 | 0.00 | 0.00 | 88 | 1014.2 |
| 20260510002508 | 66 | 0 | 0.0 | 0.0 | 0.00 | 0.00 | 0.00 | 88 | 1014.1 |
| 20260510002005 | 67 | 8 | 0.0 | 1.0 | 0.00 | 0.00 | 0.00 | 87 | 1014.2 |
| 20260510001503 | 68 | 23 | 0.0 | 0.0 | 0.00 | 0.00 | 0.00 | 85 | 1014.0 |
| 20260510001001 | 68 | 23 | 0.0 | 0.0 | 0.00 | 0.00 | 0.00 | 84 | 1013.9 |
| 20260510000456 | 69 | 23 | 0.0 | 1.0 | 0.00 | 0.00 | 0.00 | 83 | 1013.9 |
| 20260509235953 | 69 | 0 | 0.0 | 0.0 | 0.00 | 0.00 | 0.00 | 83 | 1014.0 |
| 20260509235449 | 69 | 0 | 0.0 | 0.0 | 0.00 | 0.00 | 0.00 | 82 | 1013.9 |
| 20260509234946 | 69 | 0 | 0.0 | 0.0 | 0.00 | 0.00 | 0.00 | 82 | 1014.0 |
| 20260509234443 | 70 | 11 | 0.0 | 0.0 | 0.00 | 0.00 | 0.00 | 81 | 1013.8 |
| 20260509233941 | 70 | 11 | 0.0 | 0.0 | 0.00 | 0.00 | 0.00 | 80 | 1013.9 |
| 20260509233438 | 70 | 11 | 0.0 | 0.0 | 0.00 | 0.00 | 0.00 | 81 | 1013.7 |
| 20260509232933 | 70 | 11 | 0.0 | 2.0 | 0.00 | 0.00 | 0.00 | 80 | 1013.6 |
| 20260509232432 | 70 | 29 | 0.0 | 0.0 | 0.00 | 0.00 | 0.00 | 80 | 1013.6 |
| 20260509231927 | 71 | 35 | 0.0 | 0.0 | 0.00 | 0.00 | 0.00 | 79 | 1013.7 |
| 20260509231424 | 70 | 35 | 0.0 | 2.0 | 0.00 | 0.00 | 0.00 | 79 | 1013.6 |
| 20260509230922 | 71 | 15 | 2.0 | 3.0 | 0.00 | 0.00 | 0.00 | 77 | 1013.5 |
| 20260509230419 | 71 | 6 | 0.0 | 1.0 | 0.00 | 0.00 | 0.00 | 76 | 1013.7 |
| 20260509225915 | 73 | 74 | 0.0 | 0.0 | 0.00 | 0.00 | 0.00 | 75 | 1013.6 |
| 20260509225412 | 73 | 74 | 0.0 | 0.0 | 0.00 | 0.00 | 0.00 | 75 | 1013.7 |
| 20260509224908 | 73 | 0 | 0.0 | 0.0 | 0.00 | 0.00 | 0.00 | 74 | 1013.5 |
| 20260509224403 | 73 | 74 | 0.0 | 0.0 | 0.00 | 0.00 | 0.00 | 76 | 1013.7 |
| 20260509223901 | 72 | 352 | 0.0 | 2.0 | 0.00 | 0.00 | 0.00 | 75 | 1013.5 |
| 20260509223357 | 72 | 77 | 2.0 | 5.0 | 0.00 | 0.00 | 0.00 | 74 | 1013.4 |
| 20260509222854 | 74 | 294 | 0.0 | 3.0 | 0.00 | 0.00 | 0.00 | 74 | 1013.4 |
| 20260509222355 | 73 | 85 | 2.0 | 4.0 | 0.00 | 0.00 | 0.00 | 74 | 1013.5 |
| 20260509221850 | 74 | 355 | 0.0 | 2.0 | 0.00 | 0.00 | 0.00 | 74 | 1013.3 |
| 20260509221348 | 74 | 311 | 0.0 | 3.0 | 0.00 | 0.00 | 0.00 | 72 | 1013.1 |
| 20260509220843 | 73 | 12 | 2.0 | 4.0 | 0.00 | 0.00 | 0.00 | 72 | 1013.2 |
| 20260509220339 | 74 | 298 | 4.0 | 4.0 | 0.00 | 0.00 | 0.00 | 72 | 1013.1 |
| 20260509215835 | 77 | 294 | 0.0 | 2.0 | 0.00 | 0.00 | 0.00 | 71 | 1013.3 |
| 20260509215332 | 77 | 63 | 0.0 | 2.0 | 0.00 | 0.00 | 0.00 | 71 | 1013.2 |
| 20260509214829 | 76 | 54 | 0.0 | 1.0 | 0.00 | 0.00 | 0.00 | 72 | 1013.1 |
| 20260509214326 | 76 | 278 | 0.0 | 1.0 | 0.00 | 0.00 | 0.00 | 71 | 1013.1 |
| 20260509213823 | 76 | 74 | 1.0 | 2.0 | 0.00 | 0.00 | 0.00 | 73 | 1012.9 |
| 20260509213318 | 75 | 328 | 2.0 | 3.0 | 0.00 | 0.00 | 0.00 | 71 | 1013.0 |
| 20260509212816 | 75 | 328 | 2.0 | 3.0 | 0.00 | 0.00 | 0.00 | 72 | 1013.0 |
| 20260509212314 | 73 | 68 | 2.0 | 4.0 | 0.00 | 0.00 | 0.00 | 73 | 1013.0 |
| 20260509211809 | 73 | 0 | 0.0 | 2.0 | 0.00 | 0.00 | 0.00 | 74 | 1013.0 |
| 20260509211305 | 74 | 8 | 0.0 | 0.0 | 0.00 | 0.00 | 0.00 | 73 | 1012.8 |
| 20260509210802 | 75 | 315 | 0.0 | 3.0 | 0.00 | 0.00 | 0.00 | 73 | 1012.9 |
| 20260509210300 | 76 | 292 | 2.0 | 2.0 | 0.00 | 0.00 | 0.00 | 74 | 1013.0 |
| 20260509205759 | 75 | 63 | 0.0 | 0.0 | 0.00 | 0.00 | 0.00 | 73 | 1013.1 |
| 20260509205254 | 75 | 270 | 0.0 | 7.0 | 0.00 | 0.00 | 0.00 | 73 | 1013.1 |
| 20260509204750 | 75 | 303 | 0.0 | 0.0 | 0.00 | 0.00 | 0.00 | 72 | 1012.9 |
| 20260509204247 | 75 | 66 | 0.0 | 2.0 | 0.00 | 0.00 | 0.00 | 74 | 1012.9 |
| 20260509203743 | 75 | 90 | 2.0 | 3.0 | 0.00 | 0.00 | 0.00 | 74 | 1013.3 |
| 20260509203241 | 76 | 286 | 0.0 | 1.0 | 0.00 | 0.00 | 0.00 | 74 | 1013.2 |
| 20260509202736 | 75 | 337 | 0.0 | 2.0 | 0.00 | 0.00 | 0.00 | 75 | 1013.1 |
| 20260509202233 | 75 | 90 | 0.0 | 0.0 | 0.00 | 0.00 | 0.00 | 73 | 1013.1 |
| 20260509201727 | 75 | 279 | 0.0 | 2.0 | 0.00 | 0.00 | 0.00 | 73 | 1013.3 |
| 20260509201224 | 75 | 270 | 0.0 | 3.0 | 0.00 | 0.00 | 0.00 | 73 | 1013.2 |
| 20260509200720 | 77 | 114 | 0.0 | 0.0 | 0.00 | 0.00 | 0.00 | 73 | 1013.0 |
| 20260509200215 | 75 | 114 | 0.0 | 1.0 | 0.00 | 0.00 | 0.00 | 74 | 1013.0 |
| 20260509195711 | 74 | 83 | 0.0 | 1.0 | 0.00 | 0.00 | 0.00 | 73 | 1013.4 |
| 20260509195207 | 74 | 69 | 0.0 | 4.0 | 0.00 | 0.00 | 0.00 | 74 | 1013.4 |
| 20260509194701 | 75 | 277 | 0.0 | 1.0 | 0.00 | 0.00 | 0.00 | 76 | 1013.5 |
| 20260509194158 | 73 | 49 | 0.0 | 2.0 | 0.00 | 0.00 | 0.00 | 74 | 1013.3 |
| 20260509193654 | 73 | 80 | 0.0 | 3.0 | 0.00 | 0.00 | 0.00 | 75 | 1013.4 |
| 20260509193149 | 74 | 84 | 0.0 | 2.0 | 0.00 | 0.00 | 0.00 | 75 | 1013.5 |
| 20260509192646 | 73 | 8 | 0.0 | 0.0 | 0.00 | 0.00 | 0.00 | 72 | 1013.8 |
| 20260509192142 | 74 | 78 | 0.0 | 2.0 | 0.00 | 0.00 | 0.00 | 74 | 1013.5 |
| 20260509191641 | 74 | 74 | 0.0 | 1.0 | 0.00 | 0.00 | 0.00 | 73 | 1013.5 |
| 20260509191139 | 75 | 263 | 0.0 | 5.0 | 0.00 | 0.00 | 0.00 | 72 | 1013.7 |
| 20260509190635 | 75 | 74 | 0.0 | 2.0 | 0.00 | 0.00 | 0.00 | 72 | 1013.6 |
| 20260509190132 | 77 | 66 | 0.0 | 2.0 | 0.00 | 0.00 | 0.00 | 72 | 1013.6 |
| 20260509185630 | 76 | 71 | 1.0 | 2.0 | 0.00 | 0.00 | 0.00 | 72 | 1013.7 |
| 20260509185126 | 74 | 71 | 0.0 | 3.0 | 0.00 | 0.00 | 0.00 | 76 | 1013.8 |
| 20260509184624 | 72 | 265 | 0.0 | 6.0 | 0.00 | 0.00 | 0.00 | 74 | 1013.9 |
| 20260509184120 | 73 | 45 | 2.0 | 3.0 | 0.00 | 0.00 | 0.00 | 76 | 1013.8 |
| 20260509183616 | 73 | 63 | 0.0 | 1.0 | 0.00 | 0.00 | 0.00 | 76 | 1013.9 |
| 20260509183112 | 73 | 63 | 0.0 | 1.0 | 0.00 | 0.00 | 0.00 | 76 | 1013.9 |
| 20260509182608 | 72 | 33 | 0.0 | 4.0 | 0.00 | 0.00 | 0.00 | 75 | 1013.9 |
| 20260509182105 | 73 | 71 | 0.0 | 2.0 | 0.00 | 0.00 | 0.00 | 78 | 1013.9 |
| 20260509181603 | 72 | 83 | 0.0 | 0.0 | 0.00 | 0.00 | 0.00 | 78 | 1013.8 |
| 20260509181100 | 72 | 35 | 0.0 | 2.0 | 0.00 | 0.00 | 0.00 | 77 | 1014.1 |
| 20260509180556 | 72 | 60 | 0.0 | 3.0 | 0.00 | 0.00 | 0.00 | 79 | 1013.9 |
| 20260509180054 | 72 | 81 | 0.0 | 0.0 | 0.00 | 0.00 | 0.00 | 77 | 1014.2 |
| 20260509175549 | 72 | 294 | 0.0 | 2.0 | 0.00 | 0.00 | 0.00 | 80 | 1014.2 |
| 20260509175046 | 70 | 18 | 0.0 | 1.0 | 0.00 | 0.00 | 0.00 | 79 | 1014.5 |
| 20260509174542 | 70 | 40 | 0.0 | 2.0 | 0.00 | 0.00 | 0.00 | 79 | 1014.5 |
| 20260509174038 | 70 | 0 | 0.0 | 3.0 | 0.00 | 0.00 | 0.00 | 81 | 1014.4 |
| 20260509173532 | 70 | 317 | 4.0 | 4.0 | 0.00 | 0.00 | 0.00 | 78 | 1014.4 |
| 20260509173029 | 70 | 342 | 0.0 | 0.0 | 0.00 | 0.00 | 0.00 | 80 | 1014.3 |
| 20260509172526 | 69 | 342 | 0.0 | 0.0 | 0.00 | 0.00 | 0.00 | 80 | 1014.6 |
| 20260509172021 | 69 | 327 | 0.0 | 2.0 | 0.00 | 0.00 | 0.00 | 81 | 1014.8 |
| 20260509171518 | 69 | 66 | 0.0 | 3.0 | 0.00 | 0.00 | 0.00 | 81 | 1014.7 |
| 20260509171015 | 69 | 351 | 2.0 | 3.0 | 0.00 | 0.00 | 0.00 | 80 | 1014.9 |
| 20260509170510 | 69 | 323 | 4.0 | 4.0 | 0.00 | 0.00 | 0.00 | 79 | 1014.7 |
| 20260509170006 | 69 | 270 | 2.0 | 3.0 | 0.00 | 0.00 | 0.00 | 78 | 1014.9 |
| 20260509165505 | 70 | 60 | 0.0 | 4.0 | 0.00 | 0.00 | 0.00 | 79 | 1014.8 |
| 20260509165001 | 70 | 286 | 0.0 | 2.0 | 0.00 | 0.00 | 0.00 | 82 | 1015.2 |
| 20260509164457 | 70 | 66 | 0.0 | 5.0 | 0.00 | 0.00 | 0.00 | 78 | 1015.0 |
| 20260509163952 | 70 | 60 | 0.0 | 3.0 | 0.00 | 0.00 | 0.00 | 80 | 1014.8 |
| 20260509163451 | 69 | 288 | 2.0 | 5.0 | 0.00 | 0.00 | 0.00 | 80 | 1014.9 |
| 20260509162949 | 70 | 90 | 0.0 | 1.0 | 0.00 | 0.00 | 0.00 | 82 | 1015.1 |
| 20260509162448 | 69 | 85 | 2.0 | 2.0 | 0.00 | 0.00 | 0.00 | 79 | 1015.3 |
| 20260509161944 | 69 | 75 | 1.0 | 2.0 | 0.00 | 0.00 | 0.00 | 79 | 1015.2 |
| 20260509161441 | 70 | 278 | 1.0 | 2.0 | 0.00 | 0.00 | 0.00 | 81 | 1015.2 |
| 20260509160936 | 70 | 281 | 3.0 | 3.0 | 0.00 | 0.00 | 0.00 | 78 | 1015.5 |
| 20260509160432 | 70 | 90 | 0.0 | 1.0 | 0.00 | 0.00 | 0.00 | 81 | 1015.4 |
| 20260509155927 | 71 | 90 | 1.0 | 2.0 | 0.00 | 0.00 | 0.00 | 81 | 1015.5 |
| 20260509155424 | 71 | 300 | 0.0 | 1.0 | 0.00 | 0.00 | 0.00 | 84 | 1015.5 |
| 20260509154921 | 69 | 300 | 0.0 | 3.0 | 0.00 | 0.00 | 0.00 | 81 | 1015.7 |
| 20260509154417 | 68 | 240 | 0.0 | 2.0 | 0.00 | 0.00 | 0.00 | 83 | 1015.7 |
| 20260509153914 | 69 | 83 | 1.0 | 2.0 | 0.00 | 0.00 | 0.00 | 83 | 1015.5 |
| 20260509153411 | 68 | 11 | 0.0 | 2.0 | 0.00 | 0.00 | 0.00 | 84 | 1015.7 |
| 20260509152908 | 67 | 82 | 0.0 | 2.0 | 0.00 | 0.00 | 0.00 | 85 | 1015.7 |